Powrót do katalogu

FENGYUN 1C DEB

AktywnyPO
NORAD 31376·DEBRIS·🇨🇳 China

Wystrzelony May 10, 1999 z Taiyuan Satellite Launch Center

Loading…

Następne Przeloty (najbliższe 24 godziny)

TLE

ŚwieżeSource: Space-Track

Epoka: Sep 14, 2026, 14:05 UTC

1 31376U 99025BSG 26257.58732026  .00005805  00000-0  10375-2 0  9996
2 31376  98.8384 198.9410 0046390 133.6198 226.8867 14.66629171 21776

Śledź FENGYUN 1C DEB w czasie rzeczywistym z AllMySat

Download on the App Store